Regional Weather Roundup
Issued by NWS

Home | Current Version | Previous Version | Text Only | Print | Product List | Glossary Off
Versions: 1 2 3 4 5 6 7 8 9 10 11 12 13 14 15 16 17 18 19 20 21 22 23 24 25 26 27 28 29 30 31 32 33 34 35 36 37 38 39 40 41 42 43 44 45 46 47 48 49 50

000
ASUS43 KFSD 260310
RWRSD

WEATHER ROUNDUP FOR SOUTH DAKOTA
NATIONAL WEATHER SERVICE SIOUX FALLS SD
1000 PM CDT SAT APR 25 2015

NOTE: "FAIR" INDICATES FEW OR NO CLOUDS BELOW 12,000 FEET WITH NO
SIGNIFICANT WEATHER AND/OR OBSTRUCTIONS TO VISIBILITY.


SDZ001>005-009-010-012>017-260400-
NORTHWEST AND NORTH CENTRAL SOUTH DAKOTA

CITY           SKY/WX    TMP DP  RH WIND       PRES   REMARKS
BUFFALO          N/A     44  41  89 NW8       29.81R
FAITH            N/A     49  46  90 N5        29.86R
MOBRIDGE       CLOUDY    51  42  71 E17       29.86R
$$

SDZ012>016-024>037-041>051-057-063-072>074-260400-
SOUTHWEST AND SOUTH CENTRAL SOUTH DAKOTA

CITY           SKY/WX    TMP DP  RH WIND       PRES   REMARKS
RAPID CTY ARPT CLOUDY    46  44  93 N16       29.85R
PIERRE         MOCLDY    53  46  77 E10       29.85R
CUSTER         LGT RAIN  44  41  89 E7        29.86R
PHILIP         CLOUDY    56  47  71 E15       29.82R
PINE RIDGE     CLOUDY    51  48  89 S3        29.79R
SPEARFISH      MOCLDY    41  41 100 W6        29.90R FOG
WINNER         CLOUDY    54  45  71 SE6       29.87R
$$

SDZ004>011-016>023-039-040-260400-
NORTHEAST SOUTH DAKOTA

CITY           SKY/WX    TMP DP  RH WIND       PRES   REMARKS
ABERDEEN       CLOUDY    51  42  71 E7        29.92R
WATERTOWN      CLOUDY    50  42  74 NE8       29.92R
BROOKINGS      MOCLDY    48  39  71 SE10      29.93R
SISSETON         N/A     50  44  80 CALM      29.95R
$$

SDZ017-020-022-023-036>040-048>070-260400-
SOUTHEAST SOUTH DAKOTA

CITY           SKY/WX    TMP DP  RH WIND       PRES   REMARKS
SIOUX FALLS    CLOUDY    53  40  61 E15       29.91R
HURON          CLOUDY    51  42  71 E6        29.90R
CHAMBERLAIN    CLOUDY    54  45  71 E7        29.88R
MITCHELL       CLOUDY    54  45  71 E10       29.90R
YANKTON        CLOUDY    54  39  58 E10G17    29.88R
$$

ABBREVIATIONS USED IN REMARKS
   TC - TEMPERATURE IN CELSIUS
  WCI - WIND CHILL INDEX
   HX - HEAT INDEX
  VSB - VISIBILITY



USA.gov is the U.S. government's official web portal to all federal, state and local government web resources and services.